Location: Newark
(35.8833°N, 14.5000°E)
Time: 03:49:29
(UTC+00:00)

UNISAT 6 - Pass Details

Date: 24 May 2019
Orbit: 606 x 690 km, 97.8° (Epoch: 25 June)

Event Time Altitude Azimuth Distance (km) Brightness Sun altitude
Rises 20:27:09 0° 3° (N) 2,919 ? -22.9°
Reaches altitude 10° 20:29:27 10° 357° (N) 1,996 ? -23.2°
Maximum altitude 20:33:31 41° 287° (WNW) 888 ? -23.7°
Enters shadow 20:35:40 23° 231° (SW) 1,292 ? -23.9°
